User: anonymous   Login
Location: Unspecified
(0.0000°N, 0.0000°E)
Time: 09:25:52
(UTC+00:00)
Language:

XW-2C - Orbit

View from above orbital plane
View from above orbital plane
View from above satellite
View from above satellite

Ground track
Ground track

The orbit data is extracted from the following two-line orbital elements,

1 40906U 15049H   21341.18093931  .00002171  00000-0  11223-3 0  9996
2 40906  97.4905 341.4786 0013065 312.6618 114.2116 15.17278167343753
Epoch (UTC): 07 December 2021 04:20:33
Eccentricity: 0.0013065
inclination: 97.4905°
perigee height: 505 km
apogee height: 523 km
right ascension of ascending node: 341.4786°
argument of perigee: 312.6618°
revolutions per day: 15.17278167
mean anomaly at epoch: 114.2116°
orbit number at epoch: 34375

The dashed part of the orbit path shows where the satellite is in the earth's shadow,  

DLR